Content
SEND FEEDBACK

Daily
Averages
Monthly
Summary
United States of America

EL PASO, TEXAS


Home > North America > United States > Texas
Elevation: 1194 meters     Latitude: 31 48N     Longitude: 106 24W

WEATHER
 
SELECT A DAY
Number of Records: 172,185;   Date Range: 1/1/95 - 9/16/14
 
SHARE

PRINT THIS DATA

[ ← Previous Day ]
WEATHER ALMANAC - 8 SEPTEMBER, 2013
[ Next Day → ]
[ °F ]   °C
Weather ElementAverageHighLow
Temperature28.3 °C33.3 °C (3:51 pm)22.8 °C (5:51 am)
Dewpoint10.2 °C13.3 °C (7:51 am)6.7 °C (6:51 pm)
Humidity34 %51 % (5:51 am)21 % (3:51 pm)
Barometer1007.5 hPa1010.5 hPa (8:51 am)1004.1 hPa (4:51 pm)
Wind Speed13.2 km/h25.9 km/h (5:51 pm)
Wind Gust31.5 km/h (5:51 pm)
Weather ElementAverage
Visibility16.1 km
Wind DirectionE (87.8 °)

Weather ElementTotal
Precipitation---
Cooling Degree Days9.7 (Base 18.3)
Growing Degree Days18.1 (Base 10)
Averaged from 23 records on 8 September, 2013
WEATHER CONDITIONS BREAKOUT
WIND DIRECTION BREAKOUT
WEATHER BY HOUR - 8 SEPTEMBER, 2013
[ °F ]   °C
Local TimeTemperatureDewpointHumidityBarometerVisibilityWind DirectionWind SpeedGust SpeedPrecipitationEventsConditions
1:51 AM26.7 °C11.1 °C38 %1009.1 hPa16.1 kmESE (110°)16.7 km/hScattered Clouds
2:51 AM25.6 °C11.1 °C40 %1008.8 hPa16.1 kmESE (120°)13 km/hMostly Cloudy
3:51 AM25 °C11.7 °C43 %1008.8 hPa16.1 kmSE (130°)5.6 km/hMostly Cloudy
4:51 AM23.9 °C12.2 °C48 %1008.8 hPa16.1 kmCalmOvercast
5:51 AM22.8 °C12.2 °C51 %1009.5 hPa16.1 kmSSW (210°)7.4 km/hMostly Cloudy
6:51 AM23.9 °C12.2 °C48 %1009.8 hPa16.1 kmCalmScattered Clouds
7:51 AM23.9 °C13.3 °C51 %1010.2 hPa16.1 kmCalmScattered Clouds
8:51 AM25.6 °C12.2 °C43 %1010.5 hPa16.1 kmVariable5.6 km/hScattered Clouds
9:51 AM26.1 °C12.2 °C42 %1010.5 hPa16.1 kmCalmScattered Clouds
10:51 AM28.3 °C12.2 °C37 %1009.8 hPa16.1 kmVariable9.3 km/hScattered Clouds
11:51 AM30.6 °C11.1 °C30 %1008.8 hPa16.1 kmSE (130°)18.5 km/h29.6 km/hScattered Clouds
12:51 PM31.7 °C8.9 °C24 %1008.1 hPa16.1 kmEast (90°)18.5 km/h29.6 km/hScattered Clouds
1:51 PM32.2 °C9.4 °C24 %1007.1 hPa16.1 kmENE (70°)16.7 km/hScattered Clouds
2:51 PM32.8 °C8.9 °C23 %1005.8 hPa16.1 kmSE (130°)14.8 km/hScattered Clouds
3:51 PM33.3 °C7.8 °C21 %1004.7 hPa16.1 kmESE (120°)18.5 km/hScattered Clouds
4:51 PM33.3 °C8.3 °C21 %1004.1 hPa16.1 kmSE (140°)18.5 km/hScattered Clouds
5:51 PM32.2 °C7.2 °C21 %1004.4 hPa16.1 kmESE (120°)25.9 km/h31.5 km/hScattered Clouds
6:51 PM31.1 °C6.7 °C22 %1004.7 hPa16.1 kmEast (90°)16.7 km/hScattered Clouds
7:51 PM30 °C6.7 °C23 %1005.1 hPa16.1 kmEast (90°)14.8 km/hScattered Clouds
8:51 PM29.4 °C8.3 °C27 %1005.8 hPa16.1 kmESE (110°)20.4 km/hScattered Clouds
9:51 PM28.3 °C9.4 °C31 %1006.4 hPa16.1 kmESE (120°)18.5 km/hScattered Clouds
10:51 PM27.2 °C10.6 °C35 %1006.8 hPa16.1 kmESE (120°)20.4 km/h31.5 km/hScattered Clouds
11:51 PM26.7 °C11.7 °C39 %1006.4 hPa16.1 kmESE (120°)24.1 km/hScattered Clouds
Hourly data recorded from KELP, located 0 kilometers away from El Paso, Texas







STORIES FROM OUR PARTNERS